| time (UTC) | temp F | wind direction | speed MPH | gust MPH | rain 1hr in | rain 24hr in | rain mn in | humidity % | barometer mb |
| 20260902180056 | 90 | 159 | 5.0 | 11.0 | 0.00 | 0.00 | 0.00 | 17 | 952.7 |
| 20260902174545 | 89 | 198 | 9.0 | 18.0 | 0.00 | 0.00 | 0.00 | 19 | 952.9 |
| 20260902173043 | 89 | 238 | 8.0 | 14.0 | 0.00 | 0.00 | 0.00 | 20 | 952.9 |
| 20260902171545 | 88 | 243 | 10.0 | 17.0 | 0.00 | 0.00 | 0.00 | 21 | 952.9 |
| 20260902170041 | 87 | 206 | 5.0 | 11.0 | 0.00 | 0.00 | 0.00 | 22 | 952.8 |
| 20260902164551 | 86 | 243 | 7.0 | 11.0 | 0.00 | 0.00 | 0.00 | 22 | 952.8 |
| 20260902163043 | 86 | 240 | 3.0 | 9.0 | 0.00 | 0.00 | 0.00 | 21 | 952.8 |
| 20260902161539 | 86 | 242 | 4.0 | 11.0 | 0.00 | 0.00 | 0.00 | 20 | 952.7 |
| 20260902160038 | 85 | 241 | 7.0 | 11.0 | 0.00 | 0.00 | 0.00 | 19 | 952.7 |
| 20260902154543 | 85 | 6.0 | 9.0 | 0.00 | 0.00 | 0.00 | 20 | 952.6 | |
| 20260902153038 | 85 | 259 | 4.0 | 9.0 | 0.00 | 0.00 | 0.00 | 20 | 952.5 |
| 20260902151534 | 85 | 207 | 4.0 | 8.0 | 0.00 | 0.00 | 0.00 | 19 | 952.4 |
| 20260902150032 | 85 | 233 | 3.0 | 10.0 | 0.00 | 0.00 | 0.00 | 19 | 952.4 |
| 20260902144530 | 83 | 182 | 2.0 | 5.0 | 0.00 | 0.00 | 0.00 | 21 | 952.3 |
| 20260902143028 | 83 | 196 | 0.0 | 3.0 | 0.00 | 0.00 | 0.00 | 24 | 952.1 |
| 20260902141528 | 82 | 252 | 1.0 | 3.0 | 0.00 | 0.00 | 0.00 | 24 | 952.0 |
| 20260902140034 | 81 | 120 | 4.0 | 8.0 | 0.00 | 0.00 | 0.00 | 24 | 951.7 |
| 20260902134523 | 81 | 110 | 6.0 | 9.0 | 0.00 | 0.00 | 0.00 | 25 | 951.5 |
| 20260902133022 | 79 | 104 | 6.0 | 9.0 | 0.00 | 0.00 | 0.00 | 29 | 951.5 |
| 20260902131519 | 80 | 4.0 | 6.0 | 0.00 | 0.00 | 0.00 | 28 | 951.4 | |
| 20260902130017 | 81 | 4.0 | 6.0 | 0.00 | 0.00 | 0.00 | 27 | 951.3 | |
| 20260902124518 | 82 | 143 | 4.0 | 7.0 | 0.00 | 0.00 | 0.00 | 25 | 951.3 |
| 20260902123014 | 82 | 135 | 4.0 | 7.0 | 0.00 | 0.00 | 0.00 | 28 | 951.1 |
| 20260902121509 | 82 | 151 | 4.0 | 8.0 | 0.00 | 0.00 | 0.00 | 29 | 950.9 |
| 20260902120010 | 82 | 139 | 4.0 | 8.0 | 0.00 | 0.00 | 0.00 | 32 | 951.0 |
| 20260902114508 | 82 | 135 | 3.0 | 5.0 | 0.00 | 0.00 | 0.00 | 32 | 951.0 |
| 20260902113006 | 83 | 137 | 1.0 | 4.0 | 0.00 | 0.00 | 0.00 | 30 | 950.9 |
| 20260902111503 | 84 | 133 | 3.0 | 5.0 | 0.00 | 0.00 | 0.00 | 27 | 950.8 |
| 20260902110111 | 84 | 179 | 3.0 | 6.0 | 0.00 | 0.00 | 0.00 | 25 | 950.7 |
| 20260902104559 | 85 | 208 | 4.0 | 7.0 | 0.00 | 0.00 | 0.00 | 27 | 950.7 |
| 20260902103106 | 84 | 179 | 4.0 | 10.0 | 0.00 | 0.00 | 0.00 | 37 | 950.5 |
| 20260902101558 | 85 | 193 | 6.0 | 10.0 | 0.00 | 0.00 | 0.00 | 38 | 950.6 |
| 20260902100054 | 85 | 1.0 | 6.0 | 0.00 | 0.00 | 0.00 | 41 | 950.5 | |
| 20260902094551 | 85 | 193 | 3.0 | 6.0 | 0.00 | 0.00 | 0.00 | 41 | 950.5 |
| 20260902093111 | 86 | 236 | 4.0 | 8.0 | 0.00 | 0.00 | 0.00 | 42 | 950.4 |
| 20260902091552 | 87 | 4.0 | 10.0 | 0.00 | 0.00 | 0.00 | 42 | 950.3 | |
| 20260902090049 | 87 | 198 | 7.0 | 12.0 | 0.00 | 0.00 | 0.00 | 42 | 950.4 |
| 20260902084552 | 88 | 203 | 4.0 | 15.0 | 0.00 | 0.00 | 0.00 | 40 | 950.3 |
| 20260902083046 | 89 | 195 | 9.0 | 14.0 | 0.00 | 0.00 | 0.00 | 40 | 950.2 |
| 20260902081533 | 90 | 179 | 9.0 | 18.0 | 0.00 | 0.00 | 0.00 | 39 | 950.0 |
| 20260902080029 | 90 | 165 | 8.0 | 18.0 | 0.00 | 0.00 | 0.00 | 37 | 949.9 |
| 20260902074528 | 91 | 151 | 11.0 | 20.0 | 0.00 | 0.00 | 0.00 | 37 | 949.8 |
| 20260902073026 | 91 | 160 | 13.0 | 22.0 | 0.00 | 0.00 | 0.00 | 36 | 949.7 |
| 20260902071525 | 92 | 155 | 9.0 | 21.0 | 0.00 | 0.00 | 0.00 | 32 | 949.6 |
| 20260902070021 | 93 | 159 | 11.0 | 20.0 | 0.00 | 0.00 | 0.00 | 26 | 949.7 |
| 20260902064517 | 93 | 205 | 6.0 | 15.0 | 0.00 | 0.00 | 0.00 | 23 | 949.6 |
| 20260902063022 | 93 | 158 | 7.0 | 16.0 | 0.00 | 0.00 | 0.00 | 22 | 949.5 |
| 20260902060020 | 92 | 131 | 6.0 | 10.0 | 0.00 | 0.00 | 0.00 | 22 | 949.3 |
| 20260902054515 | 92 | 148 | 6.0 | 13.0 | 0.00 | 0.00 | 0.00 | 22 | 949.3 |
| 20260902053017 | 93 | 143 | 7.0 | 11.0 | 0.00 | 0.00 | 0.00 | 21 | 949.4 |
| 20260902051513 | 93 | 145 | 7.0 | 15.0 | 0.00 | 0.00 | 0.00 | 21 | 949.6 |
| 20260902050013 | 93 | 155 | 7.0 | 13.0 | 0.00 | 0.00 | 0.00 | 21 | 949.5 |
| 20260902044513 | 93 | 144 | 7.0 | 16.0 | 0.00 | 0.00 | 0.00 | 21 | 949.6 |
| 20260902043012 | 94 | 145 | 7.0 | 13.0 | 0.00 | 0.00 | 0.00 | 20 | 949.5 |
| 20260902041512 | 94 | 197 | 9.0 | 17.0 | 0.00 | 0.00 | 0.00 | 20 | 949.4 |
| 20260902040013 | 94 | 198 | 8.0 | 16.0 | 0.00 | 0.00 | 0.00 | 20 | 949.2 |
| 20260902034511 | 94 | 193 | 6.0 | 14.0 | 0.00 | 0.00 | 0.00 | 20 | 949.1 |
| 20260902033009 | 94 | 206 | 9.0 | 14.0 | 0.00 | 0.00 | 0.00 | 20 | 948.8 |
| 20260902031510 | 95 | 230 | 7.0 | 14.0 | 0.00 | 0.00 | 0.00 | 19 | 948.6 |
| 20260902030007 | 95 | 184 | 8.0 | 13.0 | 0.00 | 0.00 | 0.00 | 20 | 948.4 |
| 20260902024518 | 96 | 217 | 6.0 | 16.0 | 0.00 | 0.00 | 0.00 | 19 | 948.2 |
| 20260902023006 | 97 | 206 | 8.0 | 16.0 | 0.00 | 0.00 | 0.00 | 19 | 948.2 |
| 20260902021505 | 97 | 219 | 9.0 | 16.0 | 0.00 | 0.00 | 0.00 | 19 | 947.9 |
| 20260902020006 | 98 | 206 | 11.0 | 22.0 | 0.00 | 0.00 | 0.00 | 19 | 947.8 |
| 20260902014606 | 99 | 195 | 12.0 | 21.0 | 0.00 | 0.00 | 0.00 | 18 | 947.9 |
| 20260902013005 | 99 | 225 | 15.0 | 24.0 | 0.00 | 0.00 | 0.00 | 18 | 947.8 |
| 20260902011502 | 100 | 172 | 9.0 | 23.0 | 0.00 | 0.00 | 0.00 | 18 | 947.8 |
| 20260902010002 | 100 | 243 | 11.0 | 28.0 | 0.00 | 0.00 | 0.00 | 18 | 947.9 |
| 20260902004559 | 100 | 233 | 14.0 | 25.0 | 0.00 | 0.00 | 0.00 | 20 | 948.0 |
| 20260902003058 | 100 | 205 | 18.0 | 33.0 | 0.00 | 0.00 | 0.00 | 21 | 948.2 |
| 20260902001556 | 100 | 168 | 14.0 | 23.0 | 0.00 | 0.00 | 0.00 | 27 | 948.3 |
| 20260902000100 | 100 | 205 | 13.0 | 21.0 | 0.00 | 0.00 | 0.00 | 28 | 948.2 |
| 20260901234553 | 99 | 172 | 15.0 | 24.0 | 0.00 | 0.00 | 0.00 | 28 | 948.4 |
| 20260901233049 | 99 | 152 | 13.0 | 28.0 | 0.00 | 0.00 | 0.00 | 30 | 948.6 |
| 20260901231547 | 99 | 148 | 11.0 | 25.0 | 0.00 | 0.00 | 0.00 | 30 | 948.7 |
| 20260901230041 | 99 | 203 | 14.0 | 25.0 | 0.00 | 0.00 | 0.00 | 30 | 948.8 |
| 20260901224538 | 99 | 205 | 12.0 | 25.0 | 0.00 | 0.00 | 0.00 | 29 | 949.0 |
| 20260901223043 | 98 | 229 | 13.0 | 24.0 | 0.00 | 0.00 | 0.00 | 30 | 949.1 |
| 20260901221533 | 99 | 195 | 14.0 | 24.0 | 0.00 | 0.00 | 0.00 | 29 | 949.3 |
| 20260901220036 | 98 | 139 | 13.0 | 25.0 | 0.00 | 0.00 | 0.00 | 30 | 949.4 |
| 20260901214525 | 98 | 203 | 14.0 | 28.0 | 0.00 | 0.00 | 0.00 | 31 | 949.5 |
| 20260901213023 | 97 | 151 | 16.0 | 27.0 | 0.00 | 0.00 | 0.00 | 31 | 949.8 |
| 20260901211517 | 98 | 7.0 | 25.0 | 0.00 | 0.00 | 0.00 | 30 | 950.0 | |
| 20260901210013 | 98 | 215 | 10.0 | 22.0 | 0.00 | 0.00 | 0.00 | 31 | 950.3 |
| 20260901204510 | 97 | 195 | 18.0 | 27.0 | 0.00 | 0.00 | 0.00 | 31 | 950.5 |
| 20260901203009 | 96 | 227 | 14.0 | 27.0 | 0.00 | 0.00 | 0.00 | 31 | 950.8 |
| 20260901201506 | 95 | 173 | 10.0 | 22.0 | 0.00 | 0.00 | 0.00 | 35 | 951.0 |
| 20260901200108 | 96 | 189 | 14.0 | 22.0 | 0.00 | 0.00 | 0.00 | 35 | 951.2 |
| 20260901194510 | 96 | 166 | 14.0 | 24.0 | 0.00 | 0.00 | 0.00 | 34 | 951.5 |
| 20260901193003 | 95 | 206 | 9.0 | 23.0 | 0.00 | 0.00 | 0.00 | 32 | 951.7 |
| 20260901191600 | 94 | 131 | 13.0 | 22.0 | 0.00 | 0.00 | 0.00 | 37 | 951.9 |
| 20260901190109 | 93 | 216 | 12.0 | 25.0 | 0.00 | 0.00 | 0.00 | 39 | 952.1 |
| 20260901184558 | 94 | 236 | 12.0 | 23.0 | 0.00 | 0.00 | 0.00 | 39 | 952.2 |
| 20260901183056 | 93 | 219 | 10.0 | 17.0 | 0.00 | 0.00 | 0.00 | 39 | 952.4 |
| 20260901181558 | 92 | 177 | 11.0 | 20.0 | 0.00 | 0.00 | 0.00 | 41 | 952.3 |